Welcome to Northern Hawkes Bay. New Zealand.
PWS Header
      nz Flag



Hit Counter


W3C Valid W3C Valid logo


    Wairoa

Select any of the Stations below to visit their websites.










Historic Data from Weather Underground
Select the location of interest below. Wairoa is the default. Please have patience, this Data is slow to load in.
Northern Hawkes Bay Historical Data
Daily Summary for June 6, 2017 Units:  Metric    English   Both
« Previous Day
Next Day »
Daily Weekly Monthly Yearly Custom
  High: Low: Average:
Temperature: 15.2 °C 5.7 °C 9.8 °C
Dew Point: 9.5 °C 5.6 °C 8.3 °C
Humidity: 99% 68% 91%
Wind Speed: 11.1km/h 0.0km/h 3.4km/h
Wind Gust: 14.8km/h - -
Wind- - West
Pressure: 1015.8 hPa 1013.8 hPa -
Precipitation: 0.5 mm    
Historical Graphs
 
 
Tabular Data for June 6, 2017
Time Temperature Dew Point Pressure Wind Wind Speed Wind Gust Humidity Rainfall Rate (Hourly) solar
00:01 9.6 °C 9.4 °C 1015.5 hPa NNW 1.1 km/h 6.1 km/h 99% 0.0 mm 0 W/m2
00:06 9.6 °C 9.4 °C 1015.1 hPa Calm   5.0 km/h 99% 0.0 mm 0 W/m2
00:11 9.4 °C 9.3 °C 1015.1 hPa Calm   2.6 km/h 99% 0.0 mm 0 W/m2
00:16 9.4 °C 9.3 °C 1015.1 hPa Calm     99% 0.0 mm 0 W/m2
00:21 9.4 °C 9.3 °C 1015.1 hPa Calm     99% 0.0 mm 0 W/m2
00:26 9.4 °C 9.3 °C 1015.1 hPa NNE 1.1 km/h 2.6 km/h 99% 0.0 mm 0 W/m2
00:31 9.5 °C 9.3 °C 1014.8 hPa North 1.1 km/h 2.6 km/h 99% 0.0 mm 0 W/m2
00:36 9.5 °C 9.3 °C 1014.8 hPa North 1.1 km/h 3.5 km/h 99% 0.3 mm 0 W/m2
00:41 9.5 °C 9.3 °C 1014.8 hPa North 1.1 km/h 3.5 km/h 99% 0.3 mm 0 W/m2
00:46 9.5 °C 9.3 °C 1014.8 hPa Calm   2.6 km/h 99% 0.3 mm 0 W/m2
00:51 9.5 °C 9.3 °C 1014.8 hPa Calm   2.6 km/h 99% 0.3 mm 0 W/m2
00:52 9.5 °C 9.3 °C 1014.8 hPa Calm   2.6 km/h 99% 0.3 mm 0 W/m2
00:57 9.5 °C 9.3 °C 1015.1 hPa NNE 1.1 km/h 3.5 km/h 99% 0.3 mm 0 W/m2
01:02 9.5 °C 9.3 °C 1015.1 hPa North 2.6 km/h 5.0 km/h 99% 0.3 mm 0 W/m2
01:07 9.6 °C 9.4 °C 1015.1 hPa North 2.6 km/h 5.0 km/h 99% 0.3 mm 0 W/m2
01:12 9.6 °C 9.4 °C 1014.8 hPa NNW 3.5 km/h 6.1 km/h 99% 0.3 mm 0 W/m2
01:17 9.6 °C 9.4 °C 1014.8 hPa NNW 3.5 km/h 6.1 km/h 99% 0.3 mm 0 W/m2
01:22 9.6 °C 9.4 °C 1014.8 hPa Calm   6.1 km/h 99% 0.3 mm 0 W/m2
01:27 9.5 °C 9.3 °C 1014.8 hPa NNW 1.1 km/h 6.1 km/h 99% 0.3 mm 0 W/m2
01:32 9.5 °C 9.3 °C 1014.8 hPa North 1.1 km/h 2.6 km/h 99% 0.3 mm 0 W/m2
01:37 9.5 °C 9.3 °C 1014.8 hPa NW 1.1 km/h 2.6 km/h 99% 0.0 mm 0 W/m2
01:42 9.5 °C 9.3 °C 1014.8 hPa Calm   2.6 km/h 99% 0.3 mm 0 W/m2
01:47 9.5 °C 9.3 °C 1014.4 hPa Calm   2.6 km/h 99% 0.3 mm 0 W/m2
01:52 9.5 °C 9.3 °C 1014.8 hPa Calm   2.6 km/h 99% 0.3 mm 0 W/m2
01:57 9.4 °C 9.3 °C 1014.4 hPa Calm   2.6 km/h 99% 0.3 mm 0 W/m2
02:02 9.4 °C 9.3 °C 1014.8 hPa Calm   1.1 km/h 99% 0.3 mm 0 W/m2
02:07 9.4 °C 9.3 °C 1014.8 hPa Calm   2.6 km/h 99% 0.3 mm 0 W/m2
02:12 9.4 °C 9.3 °C 1014.4 hPa North 2.6 km/h 3.5 km/h 99% 0.3 mm 0 W/m2
02:17 9.4 °C 9.3 °C 1014.8 hPa North 2.6 km/h 3.5 km/h 99% 0.3 mm 0 W/m2
02:22 9.4 °C 9.3 °C 1014.4 hPa North 1.1 km/h 3.5 km/h 99% 0.3 mm 0 W/m2
02:27 9.3 °C 9.2 °C 1014.8 hPa North 2.6 km/h 3.5 km/h 99% 0.3 mm 0 W/m2
02:32 9.3 °C 9.2 °C 1014.8 hPa North 2.6 km/h 3.5 km/h 99% 0.3 mm 0 W/m2
02:37 9.3 °C 9.2 °C 1014.4 hPa North 1.1 km/h 3.5 km/h 99% 0.3 mm 0 W/m2
02:42 9.3 °C 9.2 °C 1014.4 hPa North 1.1 km/h 3.5 km/h 99% 0.0 mm 0 W/m2
02:47 9.3 °C 9.2 °C 1014.4 hPa North 1.1 km/h 5.0 km/h 99% 0.0 mm 0 W/m2
02:52 9.3 °C 9.2 °C 1014.4 hPa North 1.1 km/h 5.0 km/h 99% 0.0 mm 0 W/m2
02:57 9.3 °C 9.2 °C 1014.4 hPa NNW 1.1 km/h 6.1 km/h 99% 0.0 mm 0 W/m2
03:02 9.3 °C 9.2 °C 1014.4 hPa NNW 2.6 km/h 7.2 km/h 99% 0.0 mm 0 W/m2
03:07 9.2 °C 9.1 °C 1014.4 hPa NNW 2.6 km/h 7.2 km/h 99% 0.0 mm 0 W/m2
03:12 9.2 °C 9.1 °C 1014.8 hPa North 1.1 km/h 5.0 km/h 99% 0.0 mm 0 W/m2
03:17 9.2 °C 9.1 °C 1014.4 hPa NNE 1.1 km/h 5.0 km/h 99% 0.0 mm 0 W/m2
03:22 9.2 °C 9.1 °C 1014.4 hPa North 1.1 km/h 5.0 km/h 99% 0.0 mm 0 W/m2
03:27 9.2 °C 9.1 °C 1014.4 hPa North 3.5 km/h 5.0 km/h 99% 0.0 mm 0 W/m2
03:32 9.2 °C 9.1 °C 1014.4 hPa NNW 2.6 km/h 5.0 km/h 99% 0.0 mm 0 W/m2
03:37 9.2 °C 9.1 °C 1014.4 hPa NNW 2.6 km/h 5.0 km/h 99% 0.0 mm 0 W/m2
03:42 9.2 °C 9.1 °C 1014.1 hPa NNW 2.6 km/h 5.0 km/h 99% 0.0 mm 0 W/m2
03:47 9.2 °C 9.1 °C 1014.1 hPa NNW 1.1 km/h 5.0 km/h 99% 0.0 mm 0 W/m2
03:52 9.2 °C 9.1 °C 1014.1 hPa NNW 1.1 km/h 3.5 km/h 99% 0.0 mm 0 W/m2
03:57 9.1 °C 8.9 °C 1014.1 hPa NNW 1.1 km/h 3.5 km/h 99% 0.0 mm 0 W/m2
04:02 9.1 °C 8.9 °C 1014.1 hPa NNW 2.6 km/h 3.5 km/h 99% 0.0 mm 0 W/m2
04:07 9.1 °C 8.9 °C 1014.1 hPa NNW 1.1 km/h 5.0 km/h 99% 0.0 mm 0 W/m2
04:12 9.1 °C 8.9 °C 1013.8 hPa NW 1.1 km/h 5.0 km/h 99% 0.0 mm 0 W/m2
04:17 9.1 °C 8.9 °C 1014.1 hPa NNW 1.1 km/h 5.0 km/h 99% 0.0 mm 0 W/m2
04:22 9.1 °C 8.9 °C 1014.1 hPa North 2.6 km/h 3.5 km/h 99% 0.0 mm 0 W/m2
04:27 9.1 °C 8.9 °C 1013.8 hPa NNW 2.6 km/h 5.0 km/h 99% 0.0 mm 0 W/m2
04:32 9.1 °C 8.9 °C 1013.8 hPa NNW 2.6 km/h 6.1 km/h 99% 0.0 mm 0 W/m2
04:37 9.1 °C 8.9 °C 1014.1 hPa NNW 1.1 km/h 6.1 km/h 99% 0.0 mm 0 W/m2
04:42 9.0 °C 8.8 °C 1013.8 hPa NNW 2.6 km/h 5.0 km/h 99% 0.0 mm 0 W/m2
04:47 9.0 °C 8.8 °C 1014.1 hPa NNW 2.6 km/h 5.0 km/h 99% 0.0 mm 0 W/m2
04:52 9.0 °C 8.8 °C 1014.1 hPa North 1.1 km/h 5.0 km/h 99% 0.0 mm 0 W/m2
04:57 9.0 °C 8.8 °C 1014.1 hPa North 2.6 km/h 3.5 km/h 99% 0.0 mm 0 W/m2
05:02 8.9 °C 8.8 °C 1014.1 hPa North 3.5 km/h 5.0 km/h 99% 0.0 mm 0 W/m2
05:07 8.9 °C 8.8 °C 1014.1 hPa NNW 2.6 km/h 5.0 km/h 99% 0.0 mm 0 W/m2
05:12 8.9 °C 8.8 °C 1014.1 hPa NNW 3.5 km/h 5.0 km/h 99% 0.0 mm 0 W/m2
05:17 8.8 °C 8.7 °C 1014.1 hPa NW 3.5 km/h 5.0 km/h 99% 0.0 mm 0 W/m2
05:22 8.8 °C 8.7 °C 1014.1 hPa NNW 2.6 km/h 5.0 km/h 99% 0.0 mm 0 W/m2
05:27 8.7 °C 8.6 °C 1014.1 hPa NNW 1.1 km/h 5.0 km/h 99% 0.0 mm 0 W/m2
05:32 8.7 °C 8.6 °C 1014.1 hPa North 1.1 km/h 3.5 km/h 99% 0.0 mm 0 W/m2
05:37 8.7 °C 8.6 °C 1014.1 hPa North 2.6 km/h 3.5 km/h 99% 0.0 mm 0 W/m2
05:42 8.7 °C 8.6 °C 1014.1 hPa NNW 2.6 km/h 3.5 km/h 99% 0.0 mm 0 W/m2
05:47 8.6 °C 8.4 °C 1014.1 hPa North 1.1 km/h 3.5 km/h 99% 0.0 mm 0 W/m2
05:52 8.6 °C 8.4 °C 1014.1 hPa North 1.1 km/h 3.5 km/h 99% 0.0 mm 0 W/m2
05:57 8.5 °C 8.3 °C 1014.1 hPa North 1.1 km/h 3.5 km/h 99% 0.0 mm 0 W/m2
06:02 8.4 °C 8.3 °C 1014.1 hPa NNW 1.1 km/h 3.5 km/h 99% 0.0 mm 0 W/m2
06:07 8.4 °C 8.3 °C 1014.1 hPa North 1.1 km/h 3.5 km/h 99% 0.0 mm 0 W/m2
06:12 8.4 °C 8.3 °C 1014.4 hPa North 1.1 km/h 3.5 km/h 99% 0.0 mm 0 W/m2
06:17 8.4 °C 8.3 °C 1014.4 hPa North 1.1 km/h 3.5 km/h 99% 0.0 mm 0 W/m2
06:22 8.3 °C 8.2 °C 1014.4 hPa North 1.1 km/h 2.6 km/h 99% 0.0 mm 0 W/m2
06:27 8.3 °C 8.2 °C 1014.4 hPa North 1.1 km/h 2.6 km/h 99% 0.0 mm 0 W/m2
06:32 8.3 °C 8.2 °C 1014.4 hPa NW 2.6 km/h 3.5 km/h 99% 0.0 mm 0 W/m2
06:37 8.3 °C 8.2 °C 1014.4 hPa WNW 3.5 km/h 5.0 km/h 99% 0.0 mm 0 W/m2
06:42 8.3 °C 8.2 °C 1014.4 hPa WNW 3.5 km/h 6.1 km/h 99% 0.0 mm 0 W/m2
06:47 8.3 °C 8.2 °C 1014.4 hPa NW 5.0 km/h 7.2 km/h 99% 0.0 mm 0 W/m2
06:52 8.2 °C 8.1 °C 1014.8 hPa NW 2.6 km/h 7.2 km/h 99% 0.0 mm 0 W/m2
06:57 8.2 °C 8.1 °C 1014.4 hPa NNW 3.5 km/h 7.2 km/h 99% 0.0 mm 0 W/m2
07:02 8.2 °C 8.1 °C 1014.8 hPa NW 2.6 km/h 6.1 km/h 99% 0.0 mm 0 W/m2
07:07 8.2 °C 8.1 °C 1014.4 hPa NW 2.6 km/h 5.0 km/h 99% 0.0 mm 0 W/m2
07:12 8.3 °C 8.2 °C 1014.4 hPa NNW 1.1 km/h 3.5 km/h 99% 0.0 mm 0 W/m2
07:17 8.3 °C 8.2 °C 1014.8 hPa North 3.5 km/h 5.0 km/h 99% 0.0 mm 0 W/m2
07:22 8.3 °C 8.2 °C 1014.8 hPa NNW 2.6 km/h 6.1 km/h 99% 0.0 mm 0 W/m2
07:27 8.4 °C 8.3 °C 1014.8 hPa NNW 5.0 km/h 6.1 km/h 99% 0.0 mm 1 W/m2
07:32 8.3 °C 8.2 °C 1014.8 hPa North 3.5 km/h 6.1 km/h 99% 0.0 mm 3 W/m2
07:37 8.3 °C 8.2 °C 1014.8 hPa North 5.0 km/h 7.2 km/h 99% 0.0 mm 5 W/m2
07:42 8.3 °C 8.2 °C 1014.8 hPa North 3.5 km/h 7.2 km/h 99% 0.0 mm 8 W/m2
07:47 8.3 °C 8.2 °C 1015.1 hPa North 2.6 km/h 7.2 km/h 99% 0.0 mm 10 W/m2
07:52 8.3 °C 8.2 °C 1014.8 hPa NNW 5.0 km/h 7.2 km/h 99% 0.0 mm 12 W/m2
07:57 8.4 °C 8.3 °C 1014.8 hPa NNW 1.1 km/h 7.2 km/h 99% 0.0 mm 15 W/m2
08:02 8.4 °C 8.3 °C 1015.1 hPa North 5.0 km/h 8.7 km/h 99% 0.0 mm 21 W/m2
08:07 8.5 °C 8.3 °C 1014.8 hPa NNW 3.5 km/h 9.7 km/h 99% 0.0 mm 26 W/m2
08:12 8.5 °C 8.3 °C 1014.8 hPa NNW 2.6 km/h 9.7 km/h 99% 0.0 mm 27 W/m2
08:17 8.5 °C 8.3 °C 1015.1 hPa North 2.6 km/h 7.2 km/h 99% 0.0 mm 32 W/m2
08:22 8.5 °C 8.3 °C 1015.1 hPa North 5.0 km/h 7.2 km/h 99% 0.0 mm 36 W/m2
08:27 8.6 °C 8.4 °C 1015.1 hPa North 2.6 km/h 7.2 km/h 99% 0.0 mm 43 W/m2
08:32 8.7 °C 8.6 °C 1015.1 hPa North 3.5 km/h 6.1 km/h 99% 0.0 mm 53 W/m2
08:37 8.7 °C 8.6 °C 1015.1 hPa North 2.6 km/h 8.7 km/h 99% 0.0 mm 56 W/m2
08:42 8.7 °C 8.6 °C 1015.5 hPa North 3.5 km/h 8.7 km/h 99% 0.0 mm 57 W/m2
09:01 9.0 °C 8.8 °C 1015.1 hPa NNW 5.0 km/h 11.1 km/h 99% 0.0 mm 79 W/m2
09:06 9.1 °C 8.9 °C 1015.1 hPa NNW 6.1 km/h 11.1 km/h 99% 0.0 mm 121 W/m2
09:11 9.3 °C 9.2 °C 1015.1 hPa North 6.1 km/h 11.1 km/h 99% 0.0 mm 143 W/m2
09:16 9.6 °C 9.3 °C 1015.1 hPa North 7.2 km/h 11.1 km/h 98% 0.0 mm 165 W/m2
09:21 10.1 °C 9.5 °C 1015.1 hPa North 3.5 km/h 9.7 km/h 96% 0.0 mm 181 W/m2
09:26 10.2 °C 9.4 °C 1015.1 hPa NNW 6.1 km/h 13.4 km/h 95% 0.0 mm 188 W/m2
09:31 10.4 °C 9.3 °C 1015.5 hPa NNW 5.0 km/h 13.4 km/h 93% 0.0 mm 243 W/m2
09:36 11.0 °C 9.4 °C 1015.5 hPa NNW 7.2 km/h 12.2 km/h 90% 0.0 mm 164 W/m2
09:41 11.0 °C 8.9 °C 1015.5 hPa NNW 7.2 km/h 11.1 km/h 87% 0.0 mm 128 W/m2
09:46 10.8 °C 8.7 °C 1015.5 hPa North 8.7 km/h 13.4 km/h 87% 0.0 mm 108 W/m2
09:51 10.6 °C 8.3 °C 1015.5 hPa North 6.1 km/h 13.4 km/h 86% 0.0 mm 77 W/m2
09:56 10.4 °C 8.2 °C 1015.5 hPa North 6.1 km/h 11.1 km/h 86% 0.0 mm 109 W/m2
10:01 10.4 °C 8.3 °C 1015.5 hPa NNW 7.2 km/h 12.2 km/h 87% 0.0 mm 119 W/m2
10:06 10.3 °C 8.2 °C 1015.5 hPa NNW 5.0 km/h 12.2 km/h 87% 0.0 mm 128 W/m2
10:11 10.6 °C 8.6 °C 1015.5 hPa NNW 6.1 km/h 12.2 km/h 87% 0.0 mm 128 W/m2
10:16 10.8 °C 8.7 °C 1015.5 hPa North 6.1 km/h 9.7 km/h 87% 0.0 mm 124 W/m2
10:21 10.9 °C 8.7 °C 1015.5 hPa North 7.2 km/h 11.1 km/h 86% 0.0 mm 123 W/m2
10:26 10.9 °C 8.7 °C 1015.5 hPa North 3.5 km/h 11.1 km/h 86% 0.0 mm 119 W/m2
10:31 11.1 °C 8.7 °C 1015.5 hPa North 5.0 km/h 9.7 km/h 85% 0.0 mm 134 W/m2
10:36 11.1 °C 8.7 °C 1015.8 hPa North 6.1 km/h 8.7 km/h 85% 0.0 mm 139 W/m2
10:41 11.2 °C 8.6 °C 1015.8 hPa North 5.0 km/h 8.7 km/h 84% 0.0 mm 150 W/m2
10:46 11.3 °C 8.7 °C 1015.5 hPa North 3.5 km/h 7.2 km/h 84% 0.0 mm 144 W/m2
10:51 11.4 °C 8.8 °C 1015.8 hPa NNW 6.1 km/h 8.7 km/h 84% 0.0 mm 137 W/m2
10:56 11.5 °C 8.9 °C 1015.5 hPa NNW 1.1 km/h 8.7 km/h 84% 0.0 mm 129 W/m2
11:01 11.5 °C 8.9 °C 1015.5 hPa North 5.0 km/h 8.7 km/h 84% 0.0 mm 125 W/m2
11:06 11.5 °C 8.7 °C 1015.5 hPa North 3.5 km/h 8.7 km/h 83% 0.0 mm 129 W/m2
11:11 11.5 °C 8.7 °C 1015.5 hPa North 3.5 km/h 8.7 km/h 83% 0.0 mm 124 W/m2
11:16 11.4 °C 8.6 °C 1015.5 hPa North 5.0 km/h 8.7 km/h 83% 0.0 mm 109 W/m2
11:21 11.4 °C 8.6 °C 1015.5 hPa NNW 6.1 km/h 8.7 km/h 83% 0.0 mm 95 W/m2
11:26 11.3 °C 8.5 °C 1015.1 hPa NNW 5.0 km/h 8.7 km/h 83% 0.0 mm 99 W/m2
11:31 11.3 °C 8.5 °C 1015.1 hPa NNW 3.5 km/h 8.7 km/h 83% 0.0 mm 107 W/m2
11:36 11.5 °C 8.7 °C 1015.1 hPa NNW 3.5 km/h 7.2 km/h 83% 0.0 mm 133 W/m2
11:41 11.7 °C 8.9 °C 1015.1 hPa NNW 3.5 km/h 7.2 km/h 83% 0.0 mm 183 W/m2
11:46 11.9 °C 9.1 °C 1015.1 hPa NNW 6.1 km/h 7.2 km/h 83% 0.0 mm 204 W/m2
11:51 12.2 °C 9.1 °C 1015.1 hPa North 3.5 km/h 7.2 km/h 81% 0.0 mm 201 W/m2
11:56 12.5 °C 9.2 °C 1015.1 hPa NE 2.6 km/h 7.2 km/h 80% 0.0 mm 182 W/m2
12:01 12.4 °C 8.7 °C 1015.1 hPa NNE 1.1 km/h 9.7 km/h 78% 0.0 mm 179 W/m2
12:06 12.8 °C 9.4 °C 1015.1 hPa NNW 5.0 km/h 9.7 km/h 80% 0.0 mm 179 W/m2
12:11 13.0 °C 9.1 °C 1015.1 hPa North 3.5 km/h 6.1 km/h 77% 0.0 mm 170 W/m2
12:16 12.8 °C 8.9 °C 1015.1 hPa NNE 2.6 km/h 6.1 km/h 77% 0.0 mm 173 W/m2
12:22 13.1 °C 9.2 °C 1014.8 hPa NW 3.5 km/h 6.1 km/h 77% 0.0 mm 184 W/m2
12:27 13.4 °C 9.3 °C 1015.1 hPa South 2.6 km/h 6.1 km/h 76% 0.0 mm 188 W/m2
12:32 13.6 °C 9.4 °C 1014.8 hPa South 3.5 km/h 6.1 km/h 76% 0.0 mm 173 W/m2
12:37 13.4 °C 9.3 °C 1014.8 hPa SSW 7.2 km/h 12.2 km/h 76% 0.0 mm 124 W/m2
12:42 12.9 °C 8.9 °C 1015.1 hPa SW 11.1 km/h 13.4 km/h 77% 0.0 mm 124 W/m2
12:47 12.4 °C 8.7 °C 1014.8 hPa SW 3.5 km/h 13.4 km/h 78% 0.0 mm 115 W/m2
12:52 12.3 °C 8.8 °C 1014.8 hPa SW 7.2 km/h 11.1 km/h 79% 0.0 mm 121 W/m2
12:57 12.2 °C 8.8 °C 1014.8 hPa WSW 6.1 km/h 9.7 km/h 80% 0.0 mm 137 W/m2
13:02 12.3 °C 8.9 °C 1014.8 hPa SW 6.1 km/h 11.1 km/h 80% 0.0 mm 151 W/m2
13:07 12.4 °C 9.1 °C 1014.4 hPa SW 7.2 km/h 11.1 km/h 80% 0.0 mm 155 W/m2
13:12 12.4 °C 9.1 °C 1014.8 hPa SW 5.0 km/h 11.1 km/h 80% 0.0 mm 153 W/m2
13:17 12.5 °C 9.2 °C 1014.4 hPa SW 7.2 km/h 11.1 km/h 80% 0.0 mm 155 W/m2
13:23 12.5 °C 8.8 °C 1014.8 hPa SW 5.0 km/h 11.1 km/h 78% 0.0 mm 177 W/m2
13:28 12.7 °C 8.9 °C 1014.4 hPa SW 9.7 km/h 12.2 km/h 78% 0.0 mm 189 W/m2
13:33 12.9 °C 9.2 °C 1014.4 hPa WSW 7.2 km/h 12.2 km/h 78% 0.0 mm 183 W/m2
13:38 13.3 °C 9.3 °C 1014.4 hPa WSW 11.1 km/h 14.8 km/h 77% 0.0 mm 178 W/m2
13:43 13.2 °C 8.9 °C 1014.4 hPa SW 7.2 km/h 14.8 km/h 75% 0.0 mm 174 W/m2
13:48 13.4 °C 9.3 °C 1014.4 hPa SW 9.7 km/h 14.8 km/h 76% 0.0 mm 172 W/m2
13:53 13.3 °C 9.2 °C 1014.4 hPa WSW 8.7 km/h 13.4 km/h 76% 0.0 mm 148 W/m2
13:58 13.1 °C 8.9 °C 1014.4 hPa WSW 7.2 km/h 12.2 km/h 76% 0.0 mm 120 W/m2
14:03 12.9 °C 8.8 °C 1014.4 hPa WSW 7.2 km/h 13.4 km/h 76% 0.0 mm 113 W/m2
14:08 12.8 °C 8.7 °C 1014.4 hPa WSW 8.7 km/h 13.4 km/h 76% 0.0 mm 111 W/m2
14:13 12.6 °C 8.7 °C 1014.8 hPa SW 3.5 km/h 12.2 km/h 77% 0.0 mm 219 W/m2
14:18 12.9 °C 8.9 °C 1014.4 hPa SW 3.5 km/h 11.1 km/h 77% 0.0 mm 122 W/m2
14:23 13.0 °C 9.1 °C 1014.8 hPa SW 7.2 km/h 9.7 km/h 77% 0.0 mm 104 W/m2
14:28 13.4 °C 9.3 °C 1014.4 hPa SW 6.1 km/h 11.1 km/h 76% 0.0 mm 292 W/m2
14:33 13.7 °C 9.3 °C 1014.4 hPa SW 3.5 km/h 11.1 km/h 75% 0.0 mm 121 W/m2
14:38 13.6 °C 8.8 °C 1014.4 hPa SW 5.0 km/h 11.1 km/h 73% 0.0 mm 217 W/m2
14:43 13.9 °C 9.2 °C 1014.4 hPa SW 5.0 km/h 11.1 km/h 73% 0.0 mm 246 W/m2
14:48 14.5 °C 9.3 °C 1014.4 hPa SW 7.2 km/h 9.7 km/h 71% 0.0 mm 234 W/m2
14:53 14.4 °C 8.8 °C 1014.4 hPa SW 6.1 km/h 11.1 km/h 69% 0.0 mm 227 W/m2
14:58 14.7 °C 9.3 °C 1014.8 hPa SSW 3.5 km/h 12.2 km/h 70% 0.0 mm 217 W/m2
15:03 15.2 °C 9.3 °C 1014.4 hPa SW 6.1 km/h 12.2 km/h 68% 0.0 mm 207 W/m2
15:08 14.9 °C 9.3 °C 1014.4 hPa SW 8.7 km/h 11.1 km/h 69% 0.0 mm 201 W/m2
15:13 14.5 °C 9.3 °C 1014.4 hPa SW 6.1 km/h 11.1 km/h 71% 0.0 mm 191 W/m2
15:18 14.7 °C 9.5 °C 1014.4 hPa SW 3.5 km/h 11.1 km/h 71% 0.0 mm 180 W/m2
15:23 14.5 °C 8.9 °C 1014.4 hPa SW 7.2 km/h 11.1 km/h 69% 0.0 mm 171 W/m2
15:28 14.6 °C 9.4 °C 1014.4 hPa SW 6.1 km/h 11.1 km/h 71% 0.0 mm 158 W/m2
15:33 14.6 °C 9.0 °C 1014.4 hPa SW 5.0 km/h 9.7 km/h 69% 0.0 mm 142 W/m2
15:38 14.8 °C 9.2 °C 1014.4 hPa WSW 5.0 km/h 9.7 km/h 69% 0.0 mm 131 W/m2
15:43 14.7 °C 9.3 °C 1014.4 hPa WSW 5.0 km/h 9.7 km/h 70% 0.0 mm 117 W/m2
15:48 14.5 °C 8.9 °C 1014.4 hPa WSW 3.5 km/h 9.7 km/h 69% 0.0 mm 103 W/m2
15:53 14.6 °C 9.2 °C 1014.8 hPa WSW 3.5 km/h 8.7 km/h 70% 0.0 mm 87 W/m2
15:58 14.8 °C 9.4 °C 1014.4 hPa WSW 6.1 km/h 8.7 km/h 70% 0.0 mm 79 W/m2
16:03 13.7 °C 8.6 °C 1014.8 hPa WSW 2.6 km/h 8.7 km/h 71% 0.0 mm 26 W/m2
16:08 12.9 °C 8.4 °C 1014.8 hPa West 3.5 km/h 8.7 km/h 74% 0.0 mm 23 W/m2
16:13 12.4 °C 8.1 °C 1014.8 hPa West 1.1 km/h 5.0 km/h 75% 0.0 mm 21 W/m2
16:18 12.1 °C 8.0 °C 1014.8 hPa West 1.1 km/h 5.0 km/h 76% 0.0 mm 20 W/m2
16:23 12.1 °C 8.2 °C 1014.8 hPa West 1.1 km/h 3.5 km/h 77% 0.0 mm 16 W/m2
16:28 12.3 °C 8.6 °C 1014.8 hPa WNW 1.1 km/h 2.6 km/h 78% 0.0 mm 24 W/m2
16:33 12.9 °C 9.2 °C 1014.8 hPa Calm   2.6 km/h 78% 0.0 mm 13 W/m2
16:38 12.5 °C 8.6 °C 1014.8 hPa Calm   1.1 km/h 77% 0.0 mm 9 W/m2
16:43 11.9 °C 8.2 °C 1014.4 hPa Calm   1.1 km/h 78% 0.0 mm 6 W/m2
16:48 11.6 °C 7.9 °C 1014.4 hPa Calm   1.1 km/h 78% 0.0 mm 4 W/m2
16:53 11.4 °C 7.9 °C 1014.8 hPa Calm   1.1 km/h 79% 0.0 mm 1 W/m2
16:58 11.3 °C 8.0 °C 1014.8 hPa NNW 1.1 km/h 1.1 km/h 80% 0.0 mm 0 W/m2
17:03 11.2 °C 8.2 °C 1014.8 hPa Calm   2.6 km/h 82% 0.0 mm 0 W/m2
17:08 11.2 °C 8.2 °C 1014.8 hPa NNE 1.1 km/h 2.6 km/h 82% 0.0 mm 0 W/m2
17:13 11.1 °C 8.3 °C 1014.8 hPa Calm   2.6 km/h 83% 0.0 mm 0 W/m2
17:18 11.0 °C 8.2 °C 1014.8 hPa Calm   2.6 km/h 83% 0.0 mm 0 W/m2
17:23 10.9 °C 8.3 °C 1014.4 hPa NE 1.1 km/h 2.6 km/h 84% 0.0 mm 0 W/m2
17:28 10.8 °C 8.4 °C 1014.8 hPa NNE 3.5 km/h 5.0 km/h 85% 0.0 mm 0 W/m2
17:33 10.7 °C 8.4 °C 1014.8 hPa North 1.1 km/h 5.0 km/h 86% 0.0 mm 0 W/m2
17:38 10.5 °C 8.3 °C 1014.8 hPa North 1.1 km/h 5.0 km/h 86% 0.0 mm 0 W/m2
17:43 10.3 °C 8.2 °C 1014.8 hPa NNW 2.6 km/h 3.5 km/h 87% 0.0 mm 0 W/m2
17:48 10.2 °C 8.1 °C 1014.8 hPa WNW 3.5 km/h 5.0 km/h 87% 0.0 mm 0 W/m2
17:53 10.0 °C 7.9 °C 1014.8 hPa WNW 1.1 km/h 5.0 km/h 87% 0.0 mm 0 W/m2
17:58 9.9 °C 8.2 °C 1014.8 hPa NW 2.6 km/h 5.0 km/h 89% 0.0 mm 0 W/m2
18:03 9.7 °C 8.0 °C 1014.8 hPa NW 2.6 km/h 5.0 km/h 89% 0.0 mm 0 W/m2
18:08 9.7 °C 8.0 °C 1014.8 hPa NW 2.6 km/h 3.5 km/h 89% 0.0 mm 0 W/m2
18:13 9.5 °C 7.9 °C 1014.8 hPa NW 2.6 km/h 5.0 km/h 90% 0.0 mm 0 W/m2
18:18 9.4 °C 7.8 °C 1014.8 hPa NW 2.6 km/h 5.0 km/h 90% 0.0 mm 0 W/m2
18:23 9.2 °C 7.8 °C 1015.1 hPa NW 1.1 km/h 5.0 km/h 91% 0.0 mm 0 W/m2
18:29 9.0 °C 7.6 °C 1015.1 hPa NNW 2.6 km/h 3.5 km/h 91% 0.0 mm 0 W/m2
18:34 8.9 °C 7.7 °C 1015.1 hPa North 2.6 km/h 5.0 km/h 92% 0.0 mm 0 W/m2
18:39 8.8 °C 7.7 °C 1015.1 hPa North 2.6 km/h 5.0 km/h 93% 0.0 mm 0 W/m2
18:44 8.7 °C 7.6 °C 1015.1 hPa North 2.6 km/h 3.5 km/h 93% 0.0 mm 0 W/m2
18:49 8.6 °C 7.7 °C 1015.1 hPa North 1.1 km/h 3.5 km/h 94% 0.0 mm 0 W/m2
18:54 8.4 °C 7.5 °C 1014.8 hPa Calm   3.5 km/h 94% 0.0 mm 0 W/m2
18:59 8.4 °C 7.5 °C 1015.1 hPa NNE 2.6 km/h 3.5 km/h 94% 0.0 mm 0 W/m2
19:04 8.4 °C 7.7 °C 1015.1 hPa North 2.6 km/h 5.0 km/h 95% 0.0 mm 0 W/m2
19:09 8.2 °C 7.4 °C 1015.1 hPa North 2.6 km/h 5.0 km/h 95% 0.0 mm 0 W/m2
19:14 8.1 °C 7.3 °C 1015.1 hPa North 2.6 km/h 5.0 km/h 95% 0.0 mm 0 W/m2
19:19 7.9 °C 7.2 °C 1015.1 hPa North 1.1 km/h 5.0 km/h 95% 0.0 mm 0 W/m2
19:24 7.8 °C 7.1 °C 1015.5 hPa North 2.6 km/h 3.5 km/h 95% 0.0 mm 0 W/m2
19:29 7.7 °C 6.9 °C 1015.1 hPa North 2.6 km/h 3.5 km/h 95% 0.0 mm 0 W/m2
19:34 7.7 °C 7.1 °C 1015.5 hPa NNW 2.6 km/h 5.0 km/h 96% 0.0 mm 0 W/m2
19:39 7.6 °C 7.0 °C 1015.1 hPa NW 2.6 km/h 5.0 km/h 96% 0.0 mm 0 W/m2
19:44 7.5 °C 6.9 °C 1015.1 hPa NNW 5.0 km/h 6.1 km/h 96% 0.0 mm 0 W/m2
19:49 7.6 °C 7.0 °C 1015.1 hPa NNW 5.0 km/h 6.1 km/h 96% 0.0 mm 0 W/m2
19:54 7.6 °C 7.0 °C 1015.1 hPa NNW 2.6 km/h 6.1 km/h 96% 0.0 mm 0 W/m2
19:59 7.6 °C 7.2 °C 1015.1 hPa NNW 2.6 km/h 6.1 km/h 97% 0.0 mm 0 W/m2
20:04 7.7 °C 7.3 °C 1015.5 hPa North 2.6 km/h 5.0 km/h 97% 0.0 mm 0 W/m2
20:09 7.7 °C 7.3 °C 1015.1 hPa North 3.5 km/h 5.0 km/h 97% 0.0 mm 0 W/m2
20:14 7.7 °C 7.3 °C 1015.5 hPa NNW 2.6 km/h 6.1 km/h 97% 0.0 mm 0 W/m2
20:19 7.6 °C 7.2 °C 1015.5 hPa NNW 2.6 km/h 6.1 km/h 97% 0.0 mm 0 W/m2
20:24 7.5 °C 7.1 °C 1015.5 hPa NW 3.5 km/h 6.1 km/h 97% 0.0 mm 0 W/m2
20:29 7.3 °C 6.8 °C 1015.5 hPa NW 3.5 km/h 7.2 km/h 97% 0.0 mm 0 W/m2
20:34 7.2 °C 6.8 °C 1015.5 hPa NW 3.5 km/h 7.2 km/h 97% 0.0 mm 0 W/m2
20:39 7.2 °C 6.8 °C 1015.5 hPa NW 5.0 km/h 7.2 km/h 97% 0.0 mm 0 W/m2
20:44 7.1 °C 6.7 °C 1015.5 hPa NW 3.5 km/h 7.2 km/h 97% 0.0 mm 0 W/m2
20:49 7.1 °C 6.7 °C 1015.5 hPa NW 3.5 km/h 7.2 km/h 97% 0.0 mm 0 W/m2
20:54 7.2 °C 6.8 °C 1015.5 hPa NW 3.5 km/h 7.2 km/h 97% 0.0 mm 0 W/m2
20:59 7.1 °C 6.7 °C 1015.5 hPa NNW 5.0 km/h 7.2 km/h 97% 0.0 mm 0 W/m2
21:04 7.2 °C 6.8 °C 1015.5 hPa NNW 5.0 km/h 7.2 km/h 97% 0.0 mm 0 W/m2
21:09 7.2 °C 6.8 °C 1015.8 hPa North 3.5 km/h 7.2 km/h 97% 0.0 mm 0 W/m2
21:14 7.1 °C 6.7 °C 1015.5 hPa North 5.0 km/h 7.2 km/h 97% 0.0 mm 0 W/m2
21:19 7.1 °C 6.7 °C 1015.8 hPa NNW 3.5 km/h 7.2 km/h 97% 0.0 mm 0 W/m2
21:24 7.1 °C 6.7 °C 1015.5 hPa NNW 3.5 km/h 7.2 km/h 97% 0.0 mm 0 W/m2
21:29 7.1 °C 6.7 °C 1015.8 hPa NNW 5.0 km/h 8.7 km/h 97% 0.0 mm 0 W/m2
21:34 7.2 °C 6.8 °C 1015.8 hPa NNW 3.5 km/h 8.7 km/h 97% 0.0 mm 0 W/m2
21:40 7.1 °C 6.7 °C 1015.5 hPa NNW 3.5 km/h 7.2 km/h 97% 0.0 mm 0 W/m2
21:45 7.1 °C 6.7 °C 1015.5 hPa NNW 3.5 km/h 7.2 km/h 97% 0.0 mm 0 W/m2
21:55 6.8 °C 6.5 °C 1015.5 hPa NNW 6.1 km/h 9.7 km/h 98% 0.0 mm 0 W/m2
22:00 6.8 °C 6.5 °C 1015.5 hPa NNW 6.1 km/h 11.1 km/h 98% 0.0 mm 0 W/m2
22:05 6.7 °C 6.4 °C 1015.5 hPa NNW 6.1 km/h 11.1 km/h 98% 0.0 mm 0 W/m2
22:10 6.7 °C 6.4 °C 1015.5 hPa NNW 6.1 km/h 9.7 km/h 98% 0.0 mm 0 W/m2
22:15 6.7 °C 6.4 °C 1015.5 hPa NNW 5.0 km/h 9.7 km/h 98% 0.0 mm 0 W/m2
22:20 6.6 °C 6.3 °C 1015.5 hPa NW 5.0 km/h 9.7 km/h 98% 0.0 mm 0 W/m2
22:25 6.5 °C 6.2 °C 1015.5 hPa NNW 3.5 km/h 7.2 km/h 98% 0.0 mm 0 W/m2
22:30 6.5 °C 6.2 °C 1015.5 hPa NNW 6.1 km/h 8.7 km/h 98% 0.0 mm 0 W/m2
22:35 6.5 °C 6.2 °C 1015.1 hPa NW 3.5 km/h 8.7 km/h 98% 0.0 mm 0 W/m2
22:40 6.5 °C 6.2 °C 1015.5 hPa NW 5.0 km/h 8.7 km/h 98% 0.0 mm 0 W/m2
22:45 6.4 °C 6.1 °C 1015.5 hPa NNW 3.5 km/h 8.7 km/h 98% 0.0 mm 0 W/m2
22:50 6.3 °C 6.0 °C 1015.5 hPa NNW 5.0 km/h 8.7 km/h 98% 0.0 mm 0 W/m2
22:55 6.2 °C 5.9 °C 1015.5 hPa NNW 6.1 km/h 8.7 km/h 98% 0.0 mm 0 W/m2
23:00 6.2 °C 5.9 °C 1015.5 hPa NW 6.1 km/h 8.7 km/h 98% 0.0 mm 0 W/m2
23:05 6.2 °C 5.9 °C 1015.1 hPa NNW 6.1 km/h 9.7 km/h 98% 0.0 mm 0 W/m2
23:10 6.1 °C 5.8 °C 1015.5 hPa NNW 7.2 km/h 9.7 km/h 98% 0.0 mm 0 W/m2
23:15 6.0 °C 5.7 °C 1015.5 hPa NNW 5.0 km/h 9.7 km/h 98% 0.0 mm 0 W/m2
23:20 5.9 °C 5.8 °C 1015.5 hPa NNW 5.0 km/h 9.7 km/h 99% 0.0 mm 0 W/m2
23:26 5.8 °C 5.7 °C 1015.5 hPa NNW 5.0 km/h 8.7 km/h 99% 0.0 mm 0 W/m2
23:31 5.8 °C 5.7 °C 1015.5 hPa NNW 7.2 km/h 9.7 km/h 99% 0.0 mm 0 W/m2
23:36 5.8 °C 5.7 °C 1015.1 hPa NW 5.0 km/h 9.7 km/h 99% 0.0 mm 0 W/m2
23:41 5.7 °C 5.6 °C 1015.5 hPa NW 5.0 km/h 8.7 km/h 99% 0.0 mm 0 W/m2
23:46 5.7 °C 5.6 °C 1015.5 hPa NNW 5.0 km/h 8.7 km/h 99% 0.0 mm 0 W/m2
23:51 5.7 °C 5.6 °C 1015.5 hPa NNW 6.1 km/h 9.7 km/h 99% 0.0 mm 0 W/m2
Northern Hawkes Bay. New Zealand Historic Data
Compliments of Weather Underground - 2 mb